When you browse on this site, cookies collect data to enhance your experience and personalize the content and advertising you see.
Visit our Privacy Policy to learn more. By continuing to use the site, you agree to this use of cookies and data.
  • In Switzerland
  • List of Countries
  • For 7 days
  • Water Temperature
  • Satellite Maps
  • Weather Map
  • Weather Widgets
  • user-avatar
    Login

    Hourly Weather Nha Trang

    Today, 23 July, Tuesday

    Time Temperature Precipitation Wind Pressure Humidity
    00:00 +27°C° 0.1 mm 2 mps 745 mmHg 86%
    01:00 +27°C° 0 mm 2 mps 745 mmHg 85%
    02:00 +27°C° 0 mm 2 mps 744 mmHg 84%
    03:00 +27°C° 0 mm 2 mps 744 mmHg 83%
    04:00 +27°C° 0 mm 2 mps 743 mmHg 82%
    05:00 +27°C° 0 mm 2 mps 744 mmHg 81%
    06:00 +28°C° 0 mm 2 mps 744 mmHg 80%
    07:00 +29°C° 0 mm 2 mps 745 mmHg 72%
    08:00 +31°C° 0 mm 2 mps 745 mmHg 65%
    09:00 +34°C° 0 mm 2 mps 745 mmHg 58%
    10:00 +36°C° 0 mm 2 mps 745 mmHg 51%
    11:00 +36°C° 0 mm 2 mps 744 mmHg 53%
    12:00 +36°C° 0 mm 3 mps 744 mmHg 55%
    13:00 +36°C° 0 mm 3 mps 743 mmHg 56%
    14:00 +35°C° 0.1 mm 3 mps 743 mmHg 58%
    15:00 +35°C° 0.1 mm 3 mps 743 mmHg 61%
    16:00 +35°C° 0.1 mm 3 mps 742 mmHg 63%
    17:00 +34°C° 0 mm 2 mps 743 mmHg 67%
    18:00 +31°C° 0 mm 2 mps 743 mmHg 72%
    19:00 +30°C° 0 mm 2 mps 744 mmHg 76%
    20:00 +30°C° 0 mm 2 mps 744 mmHg 77%
    21:00 +29°C° 0 mm 2 mps 745 mmHg 77%
    22:00 +29°C° 0 mm 1 mps 745 mmHg 77%
    23:00 +28°C° 0 mm 1 mps 745 mmHg 76%

    Tomorrow, 24 July, Wednesday

    Time Temperature Precipitation Wind Pressure Humidity
    00:00 +28°C° 0 mm 2 mps 745 mmHg 75%
    01:00 +28°C° 0 mm 2 mps 744 mmHg 75%
    02:00 +28°C° 0 mm 2 mps 744 mmHg 74%
    03:00 +28°C° 0 mm 2 mps 744 mmHg 73%
    04:00 +28°C° 0 mm 2 mps 744 mmHg 72%
    05:00 +28°C° 0 mm 1 mps 744 mmHg 71%
    06:00 +29°C° 0 mm 1 mps 744 mmHg 70%
    07:00 +29°C° 0 mm 1 mps 745 mmHg 68%
    08:00 +31°C° 0 mm 1 mps 745 mmHg 62%
    09:00 +33°C° 0 mm 1 mps 745 mmHg 56%
    10:00 +35°C° 0 mm 1 mps 746 mmHg 50%
    11:00 +36°C° 0 mm 2 mps 745 mmHg 51%
    12:00 +36°C° 0 mm 2 mps 745 mmHg 52%
    13:00 +36°C° 0 mm 3 mps 744 mmHg 53%
    14:00 +35°C° 0.5 mm 3 mps 744 mmHg 59%
    15:00 +34°C° 0.5 mm 3 mps 743 mmHg 65%
    16:00 +32°C° 0.5 mm 2 mps 743 mmHg 70%
    17:00 +31°C° 0.5 mm 2 mps 743 mmHg 75%
    18:00 +30°C° 0.5 mm 2 mps 744 mmHg 80%
    19:00 +28°C° 0.5 mm 2 mps 744 mmHg 84%
    20:00 +28°C° 0.4 mm 2 mps 745 mmHg 85%
    21:00 +28°C° 0.4 mm 2 mps 745 mmHg 85%
    22:00 +27°C° 0.4 mm 2 mps 746 mmHg 86%
    23:00 +27°C° 0.5 mm 1 mps 746 mmHg 86%

    Day after tomorrow, 25 July, Thursday

    Time Temperature Precipitation Wind Pressure Humidity
    00:00 +27°C° 0.5 mm 1 mps 746 mmHg 85%
    01:00 +27°C° 0.5 mm 1 mps 746 mmHg 85%
    02:00 +27°C° 0.8 mm 1 mps 745 mmHg 86%
    03:00 +27°C° 0.8 mm 2 mps 745 mmHg 87%
    04:00 +26°C° 0.8 mm 2 mps 745 mmHg 88%
    05:00 +27°C° 0.2 mm 2 mps 746 mmHg 87%
    06:00 +27°C° 0.2 mm 2 mps 746 mmHg 86%
    07:00 +27°C° 0.2 mm 1 mps 746 mmHg 85%
    08:00 +28°C° 0 mm 2 mps 747 mmHg 80%
    09:00 +30°C° 0 mm 2 mps 747 mmHg 75%
    10:00 +31°C° 0 mm 2 mps 747 mmHg 70%
    11:00 +31°C° 0 mm 2 mps 746 mmHg 70%
    12:00 +31°C° 0 mm 2 mps 746 mmHg 70%
    13:00 +31°C° 0 mm 2 mps 745 mmHg 70%
    14:00 +31°C° 0.1 mm 2 mps 745 mmHg 71%
    15:00 +31°C° 0.1 mm 2 mps 744 mmHg 73%
    16:00 +31°C° 0.1 mm 2 mps 744 mmHg 75%
    17:00 +30°C° 0.2 mm 2 mps 745 mmHg 78%
    18:00 +29°C° 0.2 mm 2 mps 745 mmHg 81%
    19:00 +28°C° 0.2 mm 2 mps 746 mmHg 84%
    20:00 +28°C° 0.1 mm 2 mps 746 mmHg 84%
    21:00 +28°C° 0.1 mm 2 mps 746 mmHg 83%
    22:00 +27°C° 0.1 mm 2 mps 747 mmHg 83%
    23:00 +27°C° 0 mm 2 mps 746 mmHg 81%

    26 July, Friday

    Time Temperature Precipitation Wind Pressure Humidity
    00:00 +27°C° 0 mm 2 mps 746 mmHg 80%
    01:00 +27°C° 0 mm 2 mps 746 mmHg 78%
    02:00 +27°C° 0 mm 2 mps 745 mmHg 76%
    03:00 +27°C° 0 mm 2 mps 745 mmHg 74%
    04:00 +27°C° 0 mm 2 mps 745 mmHg 72%
    05:00 +27°C° 0 mm 1 mps 745 mmHg 72%
    06:00 +28°C° 0 mm 1 mps 746 mmHg 71%
    07:00 +28°C° 0 mm 1 mps 746 mmHg 71%
    08:00 +29°C° 0 mm 1 mps 746 mmHg 66%
    09:00 +31°C° 0 mm 1 mps 746 mmHg 61%
    10:00 +32°C° 0 mm 1 mps 747 mmHg 56%
    11:00 +32°C° 0.3 mm 1 mps 746 mmHg 60%
    12:00 +32°C° 0.3 mm 2 mps 745 mmHg 64%
    13:00 +31°C° 0.3 mm 2 mps 745 mmHg 68%
    14:00 +31°C° 1.1 mm 2 mps 744 mmHg 72%
    15:00 +30°C° 1.1 mm 1 mps 744 mmHg 76%
    16:00 +29°C° 1.1 mm 1 mps 743 mmHg 79%
    17:00 +29°C° 1 mm 1 mps 744 mmHg 82%
    18:00 +28°C° 1 mm 1 mps 744 mmHg 84%
    19:00 +27°C° 1 mm 1 mps 745 mmHg 86%
    20:00 +27°C° 0.6 mm 1 mps 745 mmHg 87%
    21:00 +27°C° 0.6 mm 2 mps 745 mmHg 87%
    22:00 +27°C° 0.6 mm 2 mps 746 mmHg 87%
    23:00 +27°C° 0.3 mm 2 mps 746 mmHg 87%

    27 July, Saturday

    Time Temperature Precipitation Wind Pressure Humidity
    00:00 +27°C° 0.3 mm 2 mps 745 mmHg 88%
    01:00 +26°C° 0.3 mm 2 mps 745 mmHg 88%
    02:00 +26°C° 0.3 mm 2 mps 744 mmHg 88%
    03:00 +26°C° 0.3 mm 2 mps 744 mmHg 88%
    04:00 +26°C° 0.3 mm 2 mps 744 mmHg 88%
    05:00 +26°C° 0.4 mm 2 mps 744 mmHg 88%
    06:00 +26°C° 0.4 mm 2 mps 745 mmHg 88%
    07:00 +26°C° 0.4 mm 2 mps 745 mmHg 88%
    08:00 +27°C° 0 mm 2 mps 745 mmHg 85%
    09:00 +28°C° 0 mm 1 mps 745 mmHg 81%
    10:00 +29°C° 0 mm 1 mps 745 mmHg 77%
    11:00 +30°C° 0 mm 1 mps 745 mmHg 74%
    12:00 +31°C° 0 mm 1 mps 744 mmHg 70%
    13:00 +32°C° 0 mm 1 mps 744 mmHg 67%
    14:00 +31°C° 0.1 mm 1 mps 744 mmHg 70%
    15:00 +31°C° 0.1 mm 1 mps 743 mmHg 72%
    16:00 +30°C° 0.1 mm 2 mps 743 mmHg 75%
    17:00 +29°C° 0.8 mm 1 mps 743 mmHg 79%
    18:00 +28°C° 0.8 mm 1 mps 744 mmHg 83%
    19:00 +28°C° 0.8 mm 1 mps 745 mmHg 87%
    20:00 +27°C° 0.2 mm 1 mps 745 mmHg 86%
    21:00 +27°C° 0.2 mm 1 mps 746 mmHg 86%
    22:00 +27°C° 0.2 mm 2 mps 746 mmHg 86%
    23:00 +27°C° 0 mm 2 mps 746 mmHg 85%

    28 July, Sunday

    Time Temperature Precipitation Wind Pressure Humidity
    00:00 +27°C° 0 mm 2 mps 745 mmHg 85%
    01:00 +27°C° 0 mm 2 mps 745 mmHg 85%
    02:00 +27°C° 0.3 mm 1 mps 745 mmHg 85%
    03:00 +27°C° 0.3 mm 1 mps 745 mmHg 86%
    04:00 +26°C° 0.3 mm 1 mps 745 mmHg 86%
    05:00 +27°C° 0 mm 1 mps 745 mmHg 85%
    06:00 +27°C° 0 mm 2 mps 745 mmHg 84%
    07:00 +27°C° 0 mm 2 mps 745 mmHg 83%
    08:00 +29°C° 0 mm 1 mps 745 mmHg 75%
    09:00 +31°C° 0 mm 1 mps 745 mmHg 66%
    10:00 +31°C° 0 mm 0 mps 745 mmHg 58%
    11:00 +33°C° 0.2 mm 1 mps 745 mmHg 60%
    12:00 +33°C° 0.2 mm 1 mps 744 mmHg 61%
    13:00 +34°C° 0.2 mm 2 mps 744 mmHg 63%
    14:00 +31°C° 1.8 mm 2 mps 744 mmHg 71%
    15:00 +30°C° 1.8 mm 1 mps 743 mmHg 80%
    16:00 +28°C° 1.8 mm 1 mps 743 mmHg 89%
    17:00 +28°C° 1.2 mm 1 mps 744 mmHg 89%
    18:00 +27°C° 1.2 mm 2 mps 744 mmHg 90%
    19:00 +27°C° 1.2 mm 2 mps 745 mmHg 90%
    20:00 +27°C° 0 mm 2 mps 745 mmHg 89%
    21:00 +27°C° 0 mm 2 mps 746 mmHg 87%
    22:00 +27°C° 0 mm 2 mps 746 mmHg 86%
    23:00 +27°C° 0.1 mm 1 mps 746 mmHg 86%
    Show more